Time,TemperatureF,DewpointF,PressureIn,WindDirection,WindDirectionDegrees,WindSpeedMPH,WindSpeedGustMPH,Humidity,HourlyPrecipIn,Conditions,Clouds,dailyrainin,SolarRadiationWatts/m^2,SoftwareType,DateUTC
2013-10-31 00:01:00,53.0,39.0,-100.00,NW,316,5.0,8.0,60,0.00,,,0.00,0.000000,,2013-10-31 07:01:00,
2013-10-31 00:02:00,51.0,41.0,-100.00,NW,313,5.0,8.0,68,0.00,,,0.00,0.000000,,2013-10-31 07:02:00,
2013-10-31 00:42:00,51.0,41.0,-100.00,NW,313,5.0,8.0,68,0.00,,,0.00,0.000000,,2013-10-31 07:42:00,
2013-10-31 00:52:00,51.0,41.0,-100.00,NW,313,5.0,8.0,68,0.00,,,0.00,0.000000,,2013-10-31 07:52:00,
2013-10-31 01:22:00,52.0,41.0,-100.00,NW,325,5.0,6.0,67,0.00,,,0.00,0.000000,,2013-10-31 08:22:00,
2013-10-31 01:32:00,52.0,41.0,-100.00,NW,325,5.0,6.0,67,0.00,,,0.00,0.000000,,2013-10-31 08:32:00,
2013-10-31 01:42:00,52.0,41.0,-100.00,NW,325,5.0,6.0,67,0.00,,,0.00,0.000000,,2013-10-31 08:42:00,
2013-10-31 01:52:00,52.0,41.0,-100.00,NW,325,5.0,6.0,67,0.00,,,0.00,0.000000,,2013-10-31 08:52:00,
2013-10-31 02:01:00,52.0,41.0,-100.00,NW,325,5.0,6.0,67,0.00,,,0.00,0.000000,,2013-10-31 09:01:00,
2013-10-31 02:02:00,53.0,41.0,-100.00,NNW,348,4.0,5.0,64,0.00,,,0.00,0.000000,,2013-10-31 09:02:00,
2013-10-31 02:22:00,53.0,41.0,-100.00,NNW,348,4.0,5.0,64,0.00,,,0.00,0.000000,,2013-10-31 09:22:00,
2013-10-31 02:33:00,53.0,41.0,-100.00,NNW,348,4.0,5.0,64,0.00,,,0.00,0.000000,,2013-10-31 09:33:00,
2013-10-31 02:43:00,53.0,41.0,-100.00,NNW,348,4.0,5.0,64,0.00,,,0.00,0.000000,,2013-10-31 09:43:00,
2013-10-31 02:53:00,53.0,41.0,-100.00,NNW,348,4.0,5.0,64,0.00,,,0.00,0.000000,,2013-10-31 09:53:00,
2013-10-31 03:02:00,52.0,41.0,-100.00,NW,318,4.0,6.0,65,0.00,,,0.00,0.000000,,2013-10-31 10:02:00,
2013-10-31 03:42:00,52.0,41.0,-100.00,NW,318,4.0,6.0,65,0.00,,,0.00,0.000000,,2013-10-31 10:42:00,
2013-10-31 03:53:00,52.0,41.0,-100.00,NW,318,4.0,6.0,65,0.00,,,0.00,0.000000,,2013-10-31 10:53:00,
2013-10-31 04:42:00,53.0,41.0,-100.00,NNW,330,6.0,8.0,63,0.00,,,0.00,0.000000,,2013-10-31 11:42:00,
2013-10-31 04:52:00,53.0,41.0,-100.00,NNW,330,6.0,8.0,63,0.00,,,0.00,0.000000,,2013-10-31 11:52:00,
2013-10-31 05:01:00,53.0,41.0,-100.00,NNW,330,6.0,8.0,63,0.00,,,0.00,0.000000,,2013-10-31 12:01:00,
2013-10-31 05:42:00,53.0,41.0,-100.00,NNW,330,5.0,7.0,64,0.00,,,0.00,0.000000,,2013-10-31 12:42:00,
2013-10-31 05:52:00,53.0,41.0,-100.00,NNW,330,5.0,7.0,64,0.00,,,0.00,0.000000,,2013-10-31 12:52:00,
2013-10-31 06:01:00,53.0,41.0,-100.00,NNW,330,5.0,7.0,64,0.00,,,0.00,0.000000,,2013-10-31 13:01:00,
2013-10-31 06:02:00,52.0,41.0,-100.00,NNW,336,0.0,6.0,65,0.00,,,0.00,0.000000,,2013-10-31 13:02:00,
2013-10-31 06:42:00,52.0,41.0,-100.00,NNW,336,0.0,6.0,65,0.00,,,0.00,0.000000,,2013-10-31 13:42:00,
2013-10-31 06:52:00,52.0,41.0,-100.00,NNW,336,0.0,6.0,65,0.00,,,0.00,0.000000,,2013-10-31 13:52:00,
2013-10-31 07:42:00,52.0,39.0,-100.00,NNW,331,0.0,0.0,60,0.00,,,0.00,0.000000,,2013-10-31 14:42:00,
2013-10-31 07:52:00,52.0,39.0,-100.00,NNW,331,0.0,0.0,60,0.00,,,0.00,0.000000,,2013-10-31 14:52:00,
2013-10-31 08:01:00,52.0,39.0,-100.00,NNW,331,0.0,0.0,60,0.00,,,0.00,0.000000,,2013-10-31 15:01:00,
2013-10-31 09:02:00,59.0,40.0,-100.00,ESE,109,4.0,5.0,49,-99.99,,,-99.99,138.000000,,2013-10-31 16:02:00,
2013-10-31 09:23:00,59.0,40.0,-100.00,ESE,109,4.0,5.0,49,-99.99,,,-99.99,138.000000,,2013-10-31 16:23:00,
2013-10-31 09:33:00,59.0,40.0,-100.00,ESE,109,4.0,5.0,49,-99.99,,,-99.99,138.000000,,2013-10-31 16:33:00,
2013-10-31 09:43:00,59.0,40.0,-100.00,ESE,109,4.0,5.0,49,-99.99,,,-99.99,138.000000,,2013-10-31 16:43:00,
2013-10-31 09:53:00,59.0,40.0,-100.00,ESE,109,4.0,5.0,49,-99.99,,,-99.99,138.000000,,2013-10-31 16:53:00,
2013-10-31 10:02:00,60.0,41.0,-100.00,East,99,5.0,7.0,49,-99.99,,,-99.99,311.000000,,2013-10-31 17:02:00,
2013-10-31 10:43:00,60.0,41.0,-100.00,East,99,5.0,7.0,49,-99.99,,,-99.99,311.000000,,2013-10-31 17:43:00,
2013-10-31 10:52:00,60.0,41.0,-100.00,East,99,5.0,7.0,49,-99.99,,,-99.99,311.000000,,2013-10-31 17:52:00,
2013-10-31 11:42:00,62.0,41.0,-100.00,ESE,108,3.0,8.0,46,0.00,,,-99.99,463.000000,,2013-10-31 18:42:00,
2013-10-31 11:52:00,62.0,41.0,-100.00,ESE,108,3.0,8.0,46,0.00,,,-99.99,463.000000,,2013-10-31 18:52:00,
2013-10-31 12:01:00,62.0,41.0,-100.00,ESE,108,3.0,8.0,46,0.00,,,-99.99,463.000000,,2013-10-31 19:01:00,
2013-10-31 12:02:00,63.0,41.0,-100.00,ENE,65,5.0,14.0,44,0.00,,,-99.99,571.000000,,2013-10-31 19:02:00,
2013-10-31 12:22:00,63.0,41.0,-100.00,ENE,65,5.0,14.0,44,0.00,,,-99.99,571.000000,,2013-10-31 19:22:00,
2013-10-31 12:32:00,63.0,41.0,-100.00,ENE,65,5.0,14.0,44,0.00,,,-99.99,571.000000,,2013-10-31 19:32:00,
2013-10-31 12:42:00,63.0,41.0,-100.00,ENE,65,5.0,14.0,44,0.00,,,-99.99,571.000000,,2013-10-31 19:42:00,
2013-10-31 12:52:00,63.0,41.0,-100.00,ENE,65,5.0,14.0,44,0.00,,,-99.99,571.000000,,2013-10-31 19:52:00,
2013-10-31 13:02:00,64.0,39.0,-100.00,NNE,20,7.0,14.0,40,0.00,,,-99.99,625.000000,,2013-10-31 20:02:00,
2013-10-31 13:22:00,64.0,39.0,-100.00,NNE,20,7.0,14.0,40,0.00,,,-99.99,625.000000,,2013-10-31 20:22:00,
2013-10-31 13:32:00,64.0,39.0,-100.00,NNE,20,7.0,14.0,40,0.00,,,-99.99,625.000000,,2013-10-31 20:32:00,
2013-10-31 13:42:00,64.0,39.0,-100.00,NNE,20,7.0,14.0,40,0.00,,,-99.99,625.000000,,2013-10-31 20:42:00,
2013-10-31 13:52:00,64.0,39.0,-100.00,NNE,20,7.0,14.0,40,0.00,,,-99.99,625.000000,,2013-10-31 20:52:00,
2013-10-31 14:02:00,65.0,37.0,-100.00,North,2,7.0,15.0,36,0.00,,,-99.99,618.000000,,2013-10-31 21:02:00,
2013-10-31 14:22:00,65.0,37.0,-100.00,North,2,7.0,15.0,36,0.00,,,-99.99,618.000000,,2013-10-31 21:22:00,
2013-10-31 14:33:00,65.0,37.0,-100.00,North,2,7.0,15.0,36,0.00,,,-99.99,618.000000,,2013-10-31 21:33:00,
2013-10-31 14:44:00,65.0,37.0,-100.00,North,2,7.0,15.0,36,0.00,,,-99.99,618.000000,,2013-10-31 21:44:00,
2013-10-31 14:54:00,65.0,37.0,-100.00,North,2,7.0,15.0,36,0.00,,,-99.99,618.000000,,2013-10-31 21:54:00,
2013-10-31 15:02:00,64.0,37.0,-100.00,NE,49,7.0,14.0,36,0.00,,,-99.99,555.000000,,2013-10-31 22:02:00,
2013-10-31 15:24:00,64.0,37.0,-100.00,NE,49,7.0,14.0,36,0.00,,,-99.99,555.000000,,2013-10-31 22:24:00,
2013-10-31 15:34:00,64.0,37.0,-100.00,NE,49,7.0,14.0,36,0.00,,,-99.99,555.000000,,2013-10-31 22:34:00,
2013-10-31 15:43:00,64.0,37.0,-100.00,NE,49,7.0,14.0,36,0.00,,,-99.99,555.000000,,2013-10-31 22:43:00,
2013-10-31 15:53:00,64.0,37.0,-100.00,NE,49,7.0,14.0,36,0.00,,,-99.99,555.000000,,2013-10-31 22:53:00,
2013-10-31 16:43:00,63.0,36.0,-100.00,NE,42,6.0,12.0,37,0.00,,,-99.99,436.000000,,2013-10-31 23:43:00,
2013-10-31 16:53:00,63.0,36.0,-100.00,NE,42,6.0,12.0,37,0.00,,,-99.99,436.000000,,2013-10-31 23:53:00,
2013-10-31 17:01:00,63.0,36.0,-100.00,NE,42,6.0,12.0,37,0.00,,,-99.99,436.000000,,2013-11-01 00:01:00,
2013-10-31 17:22:00,64.0,37.0,-100.00,NW,306,4.0,9.0,36,0.00,,,-99.99,275.000000,,2013-11-01 00:22:00,
2013-10-31 17:32:00,64.0,37.0,-100.00,NW,306,4.0,9.0,36,0.00,,,-99.99,275.000000,,2013-11-01 00:32:00,
2013-10-31 17:42:00,64.0,37.0,-100.00,NW,306,4.0,9.0,36,0.00,,,-99.99,275.000000,,2013-11-01 00:42:00,
2013-10-31 17:52:00,64.0,37.0,-100.00,NW,306,4.0,9.0,36,0.00,,,-99.99,275.000000,,2013-11-01 00:52:00,
2013-10-31 18:01:00,64.0,37.0,-100.00,NW,306,4.0,9.0,36,0.00,,,-99.99,275.000000,,2013-11-01 01:01:00,
2013-10-31 18:02:00,60.0,34.0,-100.00,NNW,343,4.0,8.0,38,0.00,,,-99.99,36.000000,,2013-11-01 01:02:00,
2013-10-31 18:42:00,60.0,34.0,-100.00,NNW,343,4.0,8.0,38,0.00,,,-99.99,36.000000,,2013-11-01 01:42:00,
2013-10-31 18:52:00,60.0,34.0,-100.00,NNW,343,4.0,8.0,38,0.00,,,-99.99,36.000000,,2013-11-01 01:52:00,
2013-10-31 19:02:00,58.0,36.0,-100.00,WNW,295,2.0,6.0,44,0.00,,,-99.99,2.000000,,2013-11-01 02:02:00,
2013-10-31 19:42:00,58.0,36.0,-100.00,WNW,295,2.0,6.0,44,0.00,,,-99.99,2.000000,,2013-11-01 02:42:00,
2013-10-31 19:52:00,58.0,36.0,-100.00,WNW,295,2.0,6.0,44,0.00,,,-99.99,2.000000,,2013-11-01 02:52:00,
2013-10-31 20:02:00,58.0,38.0,-100.00,WNW,291,4.0,8.0,47,0.00,,,-99.99,0.000000,,2013-11-01 03:02:00,
2013-10-31 20:45:00,58.0,38.0,-100.00,WNW,291,4.0,8.0,47,0.00,,,-99.99,0.000000,,2013-11-01 03:45:00,
2013-10-31 20:54:00,58.0,38.0,-100.00,WNW,291,4.0,8.0,47,0.00,,,-99.99,0.000000,,2013-11-01 03:54:00,
2013-10-31 21:02:00,59.0,39.0,-100.00,NW,315,6.0,10.0,47,0.00,,,-99.99,0.000000,,2013-11-01 04:02:00,
2013-10-31 21:43:00,59.0,39.0,-100.00,NW,315,6.0,10.0,47,0.00,,,-99.99,0.000000,,2013-11-01 04:43:00,
2013-10-31 21:54:00,59.0,39.0,-100.00,NW,315,6.0,10.0,47,0.00,,,-99.99,0.000000,,2013-11-01 04:54:00,
2013-10-31 22:02:00,58.0,38.0,-100.00,NE,43,5.0,10.0,48,0.00,,,-99.99,0.000000,,2013-11-01 05:02:00,
2013-10-31 22:23:00,58.0,38.0,-100.00,NE,43,5.0,10.0,48,0.00,,,-99.99,0.000000,,2013-11-01 05:23:00,
2013-10-31 22:34:00,58.0,38.0,-100.00,NE,43,5.0,10.0,48,0.00,,,-99.99,0.000000,,2013-11-01 05:34:00,
2013-10-31 22:42:00,58.0,38.0,-100.00,NE,43,5.0,10.0,48,0.00,,,-99.99,0.000000,,2013-11-01 05:42:00,
2013-10-31 22:53:00,58.0,38.0,-100.00,NE,43,5.0,10.0,48,0.00,,,-99.99,0.000000,,2013-11-01 05:53:00,
2013-10-31 23:02:00,57.0,39.0,-100.00,NE,43,5.0,7.0,50,0.00,,,-99.99,0.000000,,2013-11-01 06:02:00,
2013-10-31 23:42:00,57.0,39.0,-100.00,NE,43,5.0,7.0,50,0.00,,,-99.99,0.000000,,2013-11-01 06:42:00,
2013-10-31 23:52:00,57.0,39.0,-100.00,NE,43,5.0,7.0,50,0.00,,,-99.99,0.000000,,2013-11-01 06:52:00,